date,volume,chlorine,cholera,chol_highcov,chol_lowcov,rain
01/01/2009,4260,,10,1,9,0
02/01/2009,3967,,11,3,8,0.814
03/01/2009,3118,,8,1,7,8.112
04/01/2009,3895,,10,1,9,0
05/01/2009,2555,,6,1,5,5.196
06/01/2009,3702,,5,1,4,2.58
07/01/2009,1471,,4,2,2,2.025
08/01/2009,3453,,6,4,2,7.819
09/01/2009,2532,,6,1,5,2.766
10/01/2009,3974,,4,1,3,0
11/01/2009,3919,,6,1,5,0
12/01/2009,3637,,3,0,3,0.838
13/01/2009,2332,,1,0,1,0
14/01/2009,1640,,5,3,2,1.497
15/01/2009,2625,,4,0,4,0
16/01/2009,4360,,4,1,3,1.497
17/01/2009,4265,,3,1,2,1.527
18/01/2009,3752,,4,1,3,0.607
19/01/2009,4474,,2,1,1,0
20/01/2009,4519,,4,1,3,7.167
21/01/2009,3008,,3,1,2,0
22/01/2009,1948,,3,3,0,0
23/01/2009,0,0,6,0,6,19.461
24/01/2009,2601,,10,2,8,0.635
25/01/2009,0,0,8,2,6,1.318
26/01/2009,1539,,11,4,7,4.557
27/01/2009,1644,,5,3,2,0.251
28/01/2009,3741,,7,3,4,1.09
29/01/2009,3514,,6,3,3,2.354
30/01/2009,3537,,5,2,3,0.853
31/01/2009,3524,,6,3,3,1.085
01/02/2009,2972,,6,1,5,8.121
02/02/2009,3937,,5,2,3,0.377
03/02/2009,3391,,3,1,2,11.56
04/02/2009,3582,,2,0,2,28.221
05/02/2009,2338,,6,1,5,2.673
06/02/2009,2471,,6,2,4,0.54
07/02/2009,3163,,7,2,5,0
08/02/2009,2608,,4,2,2,40.741
09/02/2009,2042,,8,4,4,0
10/02/2009,761,,3,1,2,0
11/02/2009,3108,,9,2,7,0.356
12/02/2009,4296,,5,1,4,0
13/02/2009,3689,,7,3,4,0.412
14/02/2009,3123,,7,1,6,0
15/02/2009,3543,,3,1,2,0
16/02/2009,4250,,1,0,1,0
17/02/2009,3355,0.47,7,2,5,1.079
18/02/2009,2646,0.5,5,1,4,4.738
19/02/2009,4136,0.47,2,0,2,1.344
20/02/2009,2158,0.64,6,3,3,3.465
21/02/2009,0,0,6,3,3,1.77
22/02/2009,1470,0.4,7,4,3,0
23/02/2009,601,0.5,5,2,3,9.924
24/02/2009,2994,0.6,11,7,4,1.756
25/02/2009,405,0.7,9,4,5,2.296
26/02/2009,3550,0.4,13,9,4,0.237
27/02/2009,3224,0.6,6,2,4,0.608
28/02/2009,3882,0.6,6,4,2,2.252
01/03/2009,4504,0.5,8,5,3,0
02/03/2009,4577,0.5,4,1,3,0.111
03/03/2009,3625,0.6,3,0,3,4.545
04/03/2009,3313,0.5,3,1,2,2.229
05/03/2009,4396,0.6,1,0,1,0
06/03/2009,2789,0.4,2,0,2,6.318
07/03/2009,2290,0.4,5,1,4,41.835
08/03/2009,0,0,1,0,1,0
09/03/2009,3965,0.2,5,1,4,2.403
10/03/2009,2869,0.3,0,0,0,0
11/03/2009,2858,0.4,1,0,1,7.862
12/03/2009,1684,0.5,2,1,1,3.161
13/03/2009,541,0.6,2,2,0,12.669
14/03/2009,2516,0.5,1,0,1,9.569
15/03/2009,3468,0.5,4,0,4,0
16/03/2009,3041,0.3,3,3,0,1.233
17/03/2009,1977,0.4,2,0,2,27.959
18/03/2009,1462,,2,2,0,0
19/03/2009,4607,0.4,2,2,0,4.235
20/03/2009,4574,0.3,5,3,2,0
21/03/2009,4590,0.3,3,2,1,0
22/03/2009,3333,0.3,4,2,2,12.17
23/03/2009,3978,0.4,1,1,0,2.384
24/03/2009,4350,0.3,2,1,1,0.205
25/03/2009,4361,0.3,1,0,1,1.983
26/03/2009,2700,0.3,0,0,0,0
27/03/2009,3494,0.2,1,0,1,0
28/03/2009,4616,0.5,2,1,1,0
29/03/2009,3166,0.2,1,1,0,2.354
30/03/2009,2700,0.3,1,0,1,16.176
31/03/2009,3549,0.3,0,0,0,36.707
01/04/2009,3166,0.3,1,1,0,0
02/04/2009,862,0.4,1,0,1,10.89
03/04/2009,3341,0.3,3,2,1,3.885
04/04/2009,3273,0.6,3,3,0,0
05/04/2009,3001,0.3,1,0,1,3.416
06/04/2009,3533,0.3,2,1,1,0
07/04/2009,3719,0.4,3,0,3,0
08/04/2009,2777,0.3,0,0,0,32.474
09/04/2009,2979,0.3,2,1,1,0.333
10/04/2009,3702,0.4,1,1,0,2.009
11/04/2009,3731,0.3,0,0,0,10.798
12/04/2009,3885,0.6,2,1,1,21.907
13/04/2009,3063,0.5,1,1,0,0
14/04/2009,3996,0.5,1,1,0,9.813
15/04/2009,4256,0.4,0,0,0,25.29
16/04/2009,4789,0.4,0,0,0,0
17/04/2009,4260,0.3,3,2,1,0
18/04/2009,3884,0.3,3,3,0,3.742
19/04/2009,3661,0.4,2,1,1,0
20/04/2009,3689,0.4,1,1,0,10.722
21/04/2009,4576,0.4,1,0,1,0.428
22/04/2009,2855,0.3,0,0,0,3.093
23/04/2009,4250,0.3,0,0,0,0
24/04/2009,4026,0.3,0,0,0,0
25/04/2009,4229,0.5,1,1,0,0
26/04/2009,3882,0.5,2,1,1,1.885
27/04/2009,4012,0.3,3,1,2,6.476
28/04/2009,1267,,2,2,0,0.518
29/04/2009,3569,0.5,1,0,1,0
30/04/2009,4182,0.2,0,0,0,14.694
01/05/2009,4282,0.36,0,0,0,4.795
02/05/2009,4412,0.37,5,3,2,0.013
03/05/2009,4950,0.2,0,0,0,0
04/05/2009,4872,0.4,1,1,0,1.345
05/05/2009,4459,0.21,0,0,0,0
06/05/2009,4978,0.2,0,0,0,0
07/05/2009,2762,0.3,0,0,0,3.201
08/05/2009,4451,0.3,1,1,0,0.898
09/05/2009,4613,0.27,0,0,0,0
10/05/2009,4420,0.2,3,1,2,0
11/05/2009,3249,0.4,0,0,0,11.36
12/05/2009,4543,0.3,3,3,0,4.632
13/05/2009,4397,0.3,2,0,2,0
14/05/2009,2631,0.5,2,0,2,5.271
15/05/2009,3392,0.2,1,1,0,0
16/05/2009,4223,0.3,2,0,2,3.35
17/05/2009,3662,0.2,2,2,0,2.031
18/05/2009,4742,0.1,1,1,0,0.013
19/05/2009,5049,0.2,3,0,3,4.542
20/05/2009,3783,0.3,0,0,0,3.834
21/05/2009,4645,0.2,2,0,2,1.446
22/05/2009,3046,0.3,1,1,0,0.308
23/05/2009,4573,0.2,1,1,0,0
24/05/2009,5256,0.2,1,1,0,0
25/05/2009,4579,0.3,1,1,0,0
26/05/2009,4364,0.3,1,0,1,0
27/05/2009,4567,0.2,2,0,2,0
28/05/2009,4420,0.4,1,1,0,0
29/05/2009,3986,0.1,2,1,1,0
30/05/2009,3859,0.2,4,3,1,1.159
31/05/2009,4733,0.4,1,1,0,0
01/06/2009,5274,0.2,1,1,0,0.033
02/06/2009,3084,0.25,2,2,0,0
03/06/2009,4438,0.24,0,0,0,0.415
04/06/2009,4334,0.32,2,0,2,0
05/06/2009,4243,0.25,1,0,1,0.761
06/06/2009,3968,0.52,0,0,0,0
07/06/2009,4695,0.2,1,0,1,0
08/06/2009,4590,0.22,1,1,0,0
09/06/2009,3577,0.4,0,0,0,0
10/06/2009,4017,0.2,1,0,1,0.053
11/06/2009,4108,0.2,0,0,0,0
12/06/2009,4251,0.28,2,1,1,0
13/06/2009,3321,0.2,1,0,1,0.81
14/06/2009,4037,0.2,0,0,0,0
15/06/2009,4121,0.26,1,0,1,0
16/06/2009,4221,0.3,0,0,0,0
17/06/2009,2915,0.3,1,1,0,0
18/06/2009,2384,0.2,1,0,1,0
19/06/2009,0,0,1,1,0,0
20/06/2009,1487,0.3,2,0,2,0
21/06/2009,4618,0.32,0,0,0,0.518
22/06/2009,4001,0.3,1,1,0,0
23/06/2009,3593,0.42,1,0,1,0
24/06/2009,3900,0.3,1,0,1,0
25/06/2009,4762,0.3,0,0,0,0
26/06/2009,3763,0.35,1,0,1,0
27/06/2009,3594,0.3,0,0,0,0
28/06/2009,4224,0.3,1,1,0,0.128
29/06/2009,4545,0.36,0,0,0,0.452
30/06/2009,4150,0.4,0,0,0,0.089
01/07/2009,4306,0.3,4,2,2,0
02/07/2009,3451,0.36,1,1,0,0
03/07/2009,4083,0.36,0,0,0,0
04/07/2009,3797,0.4,1,0,1,0
05/07/2009,3215,0.4,1,1,0,0
06/07/2009,4227,0.32,0,0,0,0
07/07/2009,3732,0.4,2,2,0,3.547
08/07/2009,2905,0.4,0,0,0,0
09/07/2009,4206,0.3,1,0,1,0
10/07/2009,3761,0.36,1,1,0,0
11/07/2009,3055,0.4,0,0,0,0
12/07/2009,3484,0.5,1,1,0,0
13/07/2009,1425,0.6,0,0,0,0
14/07/2009,4153,0.5,0,0,0,0
15/07/2009,4492,0.4,0,0,0,2.781
16/07/2009,3210,0.3,1,0,1,0
17/07/2009,3922,0.3,1,0,1,0
18/07/2009,4699,0.4,1,1,0,4.864
19/07/2009,3021,0.4,0,0,0,0
20/07/2009,4123,0.3,1,1,0,4.032
21/07/2009,4352,0.2,0,0,0,0
22/07/2009,4363,0.5,1,0,1,0
23/07/2009,4162,0.3,0,0,0,2.036
24/07/2009,3043,0.3,1,1,0,0
25/07/2009,4180,0.5,0,0,0,0
26/07/2009,3065,0.5,0,0,0,0
27/07/2009,3912,0.2,3,2,1,0
28/07/2009,1923,0.4,0,0,0,0
29/07/2009,3075,0.3,0,0,0,0
30/07/2009,2499,0.3,1,0,1,0
31/07/2009,3102,0.3,0,0,0,1.935
01/08/2009,3408,0.4,2,0,2,0
02/08/2009,4833,0.4,1,0,1,0
03/08/2009,3660,0.3,0,0,0,0
04/08/2009,3499,0.46,1,0,1,0
05/08/2009,3179,0.46,1,0,1,0
06/08/2009,4005,0.3,2,1,1,0
07/08/2009,3649,0.3,0,0,0,0
08/08/2009,3399,0.36,2,1,1,0.499
09/08/2009,2714,0.42,1,1,0,0
10/08/2009,3277,0.2,0,0,0,0
11/08/2009,3113,0.3,0,0,0,0.467
12/08/2009,3014,0.3,1,1,0,0.174
13/08/2009,2662,0.3,3,2,1,3.141
14/08/2009,4138,0.6,2,2,0,0
15/08/2009,2978,0.3,1,1,0,0.241
16/08/2009,4364,0.3,3,3,0,0.425
17/08/2009,4758,0.5,1,1,0,0
18/08/2009,3741,0.5,3,0,3,0
19/08/2009,4389,0.5,6,5,1,0.467
20/08/2009,4372,0.5,3,2,1,1.558
21/08/2009,3902,0.4,6,2,4,0.804
22/08/2009,3695,0.3,7,3,4,0
23/08/2009,3983,0.5,2,0,2,0
24/08/2009,3604,0.4,2,1,1,0.499
25/08/2009,3441,0.3,4,2,2,0
26/08/2009,4000,0.2,7,4,3,0
27/08/2009,3381,0.4,7,3,4,0.467
28/08/2009,3810,0.46,4,1,3,0
29/08/2009,3629,0.5,2,1,1,0.489
30/08/2009,3662,0.3,14,8,6,0
31/08/2009,3710,0.4,9,8,1,0
01/09/2009,4177,0.3,20,12,8,0.916
02/09/2009,2587,0.4,23,17,6,0
03/09/2009,2605,0.3,25,17,8,0
04/09/2009,2144,0.2,32,17,15,0.97
05/09/2009,2289,0.3,12,9,3,0
06/09/2009,2135,0.5,11,5,6,0
07/09/2009,2061,0.4,9,5,4,0.039
08/09/2009,2872,0.1,10,5,5,0
09/09/2009,2733,0.3,7,5,2,0.796
10/09/2009,2125,0.5,20,9,11,0
11/09/2009,2502,0.4,12,6,6,0
12/09/2009,3164,0.3,10,4,6,0.667
13/09/2009,2039,0.5,7,4,3,0.918
14/09/2009,3719,0.5,11,9,2,0.388
15/09/2009,2868,0.4,6,3,3,0
16/09/2009,4120,0.4,4,3,1,0.353
17/09/2009,3532,0.5,8,4,4,0.45
18/09/2009,2269,0.5,8,5,3,0.715
19/09/2009,3279,0.3,8,7,1,0.248
20/09/2009,3473,0.2,3,2,1,2.063
21/09/2009,3681,0.2,2,2,0,0
22/09/2009,2831,0.4,5,1,4,0.212
23/09/2009,2963,0.7,3,2,1,1.24
24/09/2009,3316,0.7,1,1,0,0
25/09/2009,2957,0.9,6,5,1,0
26/09/2009,3398,0.5,5,2,3,0
27/09/2009,3547,0.8,8,4,4,1.02
28/09/2009,3896,1,7,5,2,0
29/09/2009,2384,0.6,4,0,4,2.004
30/09/2009,3100,0.3,3,1,2,0
01/10/2009,2986,0.4,4,3,1,0
02/10/2009,2663,0.64,6,5,1,0
03/10/2009,2548,0.43,8,6,2,2.351
04/10/2009,3003,0.63,11,9,2,0.722
05/10/2009,3281,0.6,8,5,3,1.814
06/10/2009,1679,0.5,2,2,0,0.311
07/10/2009,3717,0.52,1,1,0,0
08/10/2009,3168,0.54,6,3,3,0
09/10/2009,2935,0.54,5,4,1,11.275
10/10/2009,3747,0.34,2,2,0,0.018
11/10/2009,3292,0.4,4,2,2,1.048
12/10/2009,3261,0.3,3,2,1,0
13/10/2009,3540,0.4,1,1,0,0.188
14/10/2009,2898,0.5,1,1,0,0
15/10/2009,2142,0.4,5,5,0,1.693
16/10/2009,2640,0.6,1,0,1,0
17/10/2009,1862,0.8,5,4,1,0
18/10/2009,2729,0.5,8,3,5,3.834
19/10/2009,2806,0.5,0,0,0,12.955
20/10/2009,2253,0.6,6,5,1,0.284
21/10/2009,3086,0.5,6,3,3,0
22/10/2009,3392,0.3,3,2,1,0
23/10/2009,2446,0.6,4,2,2,2.132
24/10/2009,1985,0.6,6,2,4,2.591
25/10/2009,3386,,4,3,1,0.245
26/10/2009,2832,,6,1,5,0
27/10/2009,3365,,8,7,1,1.048
28/10/2009,3570,0.37,4,2,2,0
29/10/2009,2732,0.6,6,3,3,0.15
30/10/2009,2521,0.6,5,3,2,7.603
31/10/2009,2721,0.3,3,0,3,5.021
01/11/2009,3872,0.3,4,1,3,0
02/11/2009,2937,0.3,4,3,1,0
03/11/2009,3532,0.5,4,1,3,0.702
04/11/2009,2618,0.4,4,2,2,0
05/11/2009,3341,0.4,5,2,3,0.583
06/11/2009,3489,0.5,6,4,2,1.683
07/11/2009,3048,0.6,5,4,1,0.224
08/11/2009,2636,0.4,8,4,4,13.387
09/11/2009,2061,0.5,4,1,3,0
10/11/2009,2849,0.4,2,1,1,15.211
11/11/2009,2423,0.5,3,3,0,14.326
12/11/2009,2157,0.4,5,2,3,3.199
13/11/2009,1661,0.5,4,1,3,3.812
14/11/2009,2734,0.6,3,2,1,2.835
15/11/2009,1830,0.6,3,3,0,0.465
16/11/2009,2193,0.5,2,1,1,14.447
17/11/2009,3381,0.6,3,2,1,0
18/11/2009,2127,0.4,3,2,1,1.458
19/11/2009,2340,0.3,1,1,0,0.768
20/11/2009,3124,0.6,6,2,4,10.386
21/11/2009,2771,0.8,10,0,10,0.868
22/11/2009,2845,0.4,0,0,0,0
23/11/2009,0,0,1,0,1,0
24/11/2009,3260,0.5,1,1,0,0.849
25/11/2009,2053,0.6,1,1,0,3.638
26/11/2009,2395,0.5,2,1,1,4.45
27/11/2009,3772,,4,3,1,0.243
28/11/2009,3480,,1,1,0,0.302
29/11/2009,1153,,4,2,2,1.858
30/11/2009,2787,,2,2,0,0.575
01/12/2009,3739,,2,1,1,0.977
02/12/2009,2741,,2,0,2,1.032
03/12/2009,0,0,1,1,0,2.483
04/12/2009,1181,,5,2,3,6.709
05/12/2009,2549,,2,1,1,0
06/12/2009,4488,,4,4,0,1.798
07/12/2009,2729,,1,1,0,0
08/12/2009,3807,,4,2,2,1.1
09/12/2009,2533,,3,2,1,1.246
10/12/2009,4290,,2,0,2,9.752
11/12/2009,1272,,2,1,1,7.448
12/12/2009,3389,,2,2,0,0
13/12/2009,3777,,3,0,3,0.23
14/12/2009,3435,0.3,2,1,1,0.05
15/12/2009,3013,0.4,1,1,0,2.701
16/12/2009,1983,0.5,0,0,0,2.852
17/12/2009,2198,0.6,2,1,1,0
18/12/2009,3117,0.3,3,2,1,0.043
19/12/2009,3208,0.8,3,2,1,0.083
20/12/2009,3543,0.6,2,0,2,0
21/12/2009,3256,0.4,0,0,0,0
22/12/2009,3641,0.5,2,2,0,0.811
23/12/2009,2474,0.6,2,0,2,8.216
24/12/2009,3810,0.5,2,2,0,6.646
25/12/2009,4115,0.4,2,2,0,4.017
26/12/2009,3507,0.4,3,1,2,2.761
27/12/2009,2569,0.7,1,0,1,2.469
28/12/2009,2734,0.4,1,0,1,9.673
29/12/2009,2620,0.4,0,0,0,1.046
30/12/2009,3260,0.5,0,0,0,0
31/12/2009,,0.5,0,0,0,0
01/01/2010,2095,0.67,0,0,0,36.068
02/01/2010,3210,0.32,2,2,0,2.456
03/01/2010,3330,0.3,3,1,2,2.646
04/01/2010,3924,0.7,4,2,2,8.399
05/01/2010,2002,1,2,1,1,0.756
06/01/2010,3263,0.6,1,0,1,8.593
07/01/2010,2352,0.6,3,3,0,8.395
08/01/2010,2295,0.7,0,0,0,7.166
09/01/2010,4229,0.6,4,2,2,6.393
10/01/2010,2734,0.94,2,0,2,0.121
11/01/2010,3453,0.6,2,1,1,0.842
12/01/2010,3189,0.5,4,3,1,0
13/01/2010,2295,0.65,3,1,2,8.491
14/01/2010,2660,0.82,3,3,0,3.71
15/01/2010,1931,0.75,1,0,1,5.835
16/01/2010,961,0.6,2,1,1,0
17/01/2010,0,0,3,3,0,0.249
18/01/2010,1397,0.5,3,1,2,0.476
19/01/2010,1554,0.56,3,1,2,0
20/01/2010,3220,0.6,4,2,2,0
21/01/2010,3715,0.5,3,1,2,0
22/01/2010,1877,0.76,2,2,0,22.96
23/01/2010,1606,,5,2,3,1.85
24/01/2010,3142,0.8,2,2,0,0.111
25/01/2010,3357,0.9,3,2,1,0.472
26/01/2010,3246,1.1,4,2,2,0
27/01/2010,2599,0.8,3,2,1,0
28/01/2010,3300,0.7,5,2,3,0
29/01/2010,2735,0.6,1,1,0,0
30/01/2010,3970,0.57,3,2,1,0
31/01/2010,3623,0.6,2,1,1,4.002
01/02/2010,3735,0.9,2,1,1,0
02/02/2010,3098,0.4,6,2,4,0
03/02/2010,3429,0.3,1,1,0,19.048
04/02/2010,4378,0.56,4,2,2,8.618
05/02/2010,3520,0.1,5,1,4,1.377
06/02/2010,4479,0.6,1,0,1,0.436
07/02/2010,2954,0.68,3,0,3,11.894
08/02/2010,4646,0.5,3,1,2,1.012
09/02/2010,3939,0.5,4,3,1,4.754
10/02/2010,4231,0.6,2,1,1,0
11/02/2010,4318,0.4,4,1,3,0
12/02/2010,4830,0.5,2,2,0,0
13/02/2010,3648,1,4,2,2,0
14/02/2010,3972,0.63,4,2,2,2.221
15/02/2010,2459,0.75,4,1,3,70.716
16/02/2010,3098,0.57,4,2,2,24.434
17/02/2010,2139,0.6,1,0,1,1.992
18/02/2010,1642,0.5,2,1,1,0.116
19/02/2010,1527,0.7,3,1,2,9.501
20/02/2010,3680,0.6,4,2,2,1.707
21/02/2010,4385,0.7,4,3,1,0
22/02/2010,3376,0.78,4,2,2,0.86
23/02/2010,4446,0.58,7,3,4,2.343
24/02/2010,3293,0.64,2,2,0,16.293
25/02/2010,4193,1.7,4,1,3,9.843
26/02/2010,2692,0.67,5,4,1,8.456
27/02/2010,3534,0.7,5,2,3,0.064
28/02/2010,4840,0.8,5,1,4,5.323
01/03/2010,3028,1.4,6,5,1,26.568
02/03/2010,2478,0.7,3,2,1,3.811
03/03/2010,4094,0.77,2,1,1,2.135
04/03/2010,3035,0.64,6,4,2,0.403
05/03/2010,3710,0.7,3,1,2,0
06/03/2010,3648,0.7,4,2,2,0.59
07/03/2010,2947,0.85,3,1,2,0
08/03/2010,2545,0.63,5,2,3,0.52
09/03/2010,3916,0.8,2,1,1,0
10/03/2010,4546,0.41,3,3,0,3.603
11/03/2010,4218,0.4,8,5,3,1.004
12/03/2010,3650,0.6,5,3,2,6.783
13/03/2010,2659,0.6,4,2,2,3.164
14/03/2010,4900,0.66,2,1,1,0.319
15/03/2010,3451,0.7,3,2,1,12.877
16/03/2010,4160,0.6,4,1,3,0
17/03/2010,4329,0.8,1,1,0,0
18/03/2010,3856,0.7,4,2,2,1.849
19/03/2010,2434,0.7,2,2,0,19.025
20/03/2010,3891,0.6,3,2,1,2.447
21/03/2010,4333,0.7,4,2,2,0
22/03/2010,3897,0.7,4,4,0,0.236
23/03/2010,4647,0.6,3,2,1,7.279
24/03/2010,4420,0.9,2,1,1,3.125
25/03/2010,4017,0.9,3,2,1,0
26/03/2010,4636,0.73,4,1,3,1.167
27/03/2010,3634,0.7,1,1,0,26.765
28/03/2010,3743,0.5,5,4,1,3.352
29/03/2010,4064,0.66,2,1,1,0
30/03/2010,2795,0.7,5,4,1,0
31/03/2010,3367,0.6,2,0,2,0.431
01/04/2010,2691,0.4,5,2,3,18.658
02/04/2010,3895,0.7,3,1,2,2.072
03/04/2010,4047,0.83,4,2,2,0
04/04/2010,3983,0.6,5,3,2,1.516
05/04/2010,3761,0.74,3,3,0,0
06/04/2010,3256,0.73,4,3,1,0.841
07/04/2010,3062,0.7,4,4,0,0
08/04/2010,3313,0.6,3,2,1,0.628
09/04/2010,3389,0.44,3,3,0,0
10/04/2010,3921,0.55,3,2,1,0
11/04/2010,3085,0.8,4,2,2,0.821
12/04/2010,3047,0.8,4,0,4,1.09
13/04/2010,3837,0.6,4,3,1,0.249
14/04/2010,4496,0.62,5,3,2,3.456
15/04/2010,2820,0.3,3,0,3,6.316
16/04/2010,3539,0.8,4,3,1,0.178
17/04/2010,3947,0.7,2,1,1,0
18/04/2010,4191,0.71,2,2,0,1.643
19/04/2010,4659,0.55,3,1,2,0.522
20/04/2010,5173,0.64,3,1,2,0.438
21/04/2010,4588,0.55,6,2,4,0
22/04/2010,4172,0.6,10,3,7,0
23/04/2010,4548,0.68,4,3,1,0.466
24/04/2010,3740,0.6,5,2,3,0.036
25/04/2010,3473,0.6,3,2,1,1.656
26/04/2010,2817,0.8,4,1,3,5.845
27/04/2010,4347,0.6,3,2,1,0
28/04/2010,4124,0.56,4,2,2,0
29/04/2010,3364,0.6,3,1,2,0
30/04/2010,3649,0.6,4,1,3,3.688
01/05/2010,4637,0.6,5,2,3,0.89
02/05/2010,1822,0.42,5,0,5,16.578
03/05/2010,3122,0.8,3,1,2,3.13
04/05/2010,3480,0.7,4,1,3,0
05/05/2010,4145,0.8,4,0,4,1.78
06/05/2010,3201,0.7,6,5,1,6.565
07/05/2010,3027,0.8,1,1,0,0.391
08/05/2010,3075,0.7,2,0,2,0
09/05/2010,3574,0.52,2,2,0,0
10/05/2010,3532,0.5,2,1,1,0
11/05/2010,4251,0.8,3,1,2,8.811
12/05/2010,3837,0.7,2,1,1,0.293
13/05/2010,4095,0.5,1,1,0,1.415
14/05/2010,4021,0.74,2,1,1,2.048
15/05/2010,2767,0.6,2,2,0,0
16/05/2010,0,0,1,1,0,0
17/05/2010,3675,0.6,2,0,2,0
18/05/2010,3954,0.7,3,0,3,0
19/05/2010,5113,0.81,1,0,1,1.536
20/05/2010,4468,0.5,2,1,1,0
21/05/2010,4195,1,2,1,1,0
22/05/2010,4063,0.9,3,1,2,1.658
23/05/2010,4322,0.4,2,1,1,0
24/05/2010,4143,0.6,2,1,1,0
25/05/2010,3295,0.4,2,1,1,5.901
26/05/2010,4761,0.55,2,2,0,0
27/05/2010,4613,0.4,3,0,3,0
28/05/2010,4305,0.9,2,1,1,0
29/05/2010,4505,0.7,3,2,1,0
30/05/2010,4027,0.6,2,1,1,1.361
31/05/2010,4223,0.51,1,0,1,0.404
01/06/2010,3784,0.5,4,1,3,0.621
02/06/2010,2836,0.5,1,0,1,0.388
03/06/2010,4274,0.6,3,2,1,0
04/06/2010,3970,0.47,6,2,4,6.042
05/06/2010,4505,0.37,2,1,1,1.899
06/06/2010,3145,0.35,2,1,1,2.494
07/06/2010,3405,0.59,3,2,1,0
08/06/2010,4800,0.49,3,2,1,0
09/06/2010,5120,0.3,3,2,1,0
10/06/2010,2246,0.3,2,0,2,0
11/06/2010,4485,0.4,6,1,5,0
12/06/2010,4570,0.4,5,0,5,0
13/06/2010,4802,0.5,4,0,4,0
14/06/2010,3175,0.48,2,1,1,0
15/06/2010,2304,0.3,4,0,4,0.566
16/06/2010,4794,0.4,2,1,1,2.258
17/06/2010,4895,0.36,6,0,6,0
18/06/2010,2450,0.29,18,12,6,0
19/06/2010,3905,0.49,11,7,4,0
20/06/2010,4251,0.42,15,10,5,0
21/06/2010,3334,0.54,13,11,2,0.235
22/06/2010,2215,0.3,9,7,2,0
23/06/2010,3800,0.7,5,5,0,0
24/06/2010,3383,0.58,16,11,5,0
25/06/2010,3600,0.3,16,8,8,0
26/06/2010,4150,0.6,15,9,6,0.355
27/06/2010,3959,0.58,10,4,6,0
28/06/2010,1650,0.2,7,2,5,1.004
29/06/2010,3321,,4,2,2,0
30/06/2010,4183,0.41,7,3,4,0
01/07/2010,3683,0.36,7,3,4,0
02/07/2010,3034,0.7,5,4,1,0
03/07/2010,3501,0.4,6,4,2,0
04/07/2010,4110,,6,4,2,0
05/07/2010,3731,0.7,6,5,1,0
06/07/2010,4223,0.66,5,2,3,0
07/07/2010,4171,0.5,3,2,1,0
08/07/2010,3185,0.5,4,2,2,0
09/07/2010,3363,0.25,4,2,2,0
10/07/2010,4672,0.6,4,3,1,0
11/07/2010,3328,0.6,4,0,4,0
12/07/2010,3839,0.5,2,2,0,0.21
13/07/2010,3403,0.5,2,1,1,0
14/07/2010,4140,0.5,1,0,1,0
15/07/2010,4480,0.54,3,1,2,0
16/07/2010,3723,0.54,3,1,2,0
17/07/2010,4168,0.5,5,2,3,0
18/07/2010,4694,0.52,4,3,1,0
19/07/2010,4093,0.6,3,1,2,0
20/07/2010,4524,0.6,3,1,2,0
21/07/2010,4425,0.53,3,1,2,0
22/07/2010,3189,0.5,3,1,2,0.063
23/07/2010,4227,0.6,2,0,2,0.147
24/07/2010,4692,0.6,1,0,1,0
25/07/2010,4438,0.5,3,0,3,0
26/07/2010,4558,0.5,0,0,0,0
27/07/2010,4422,0.5,0,0,0,0
28/07/2010,2814,0.5,10,4,6,0
29/07/2010,3880,0.53,2,2,0,0.198
30/07/2010,4785,0.5,2,1,1,0
31/07/2010,4473,0.5,1,1,0,0
01/08/2010,4411,0.5,1,1,0,0.781
02/08/2010,2935,0.4,3,0,3,0
03/08/2010,4235,0.55,2,1,1,0
04/08/2010,4498,0.6,4,1,3,0
05/08/2010,4226,0.6,4,3,1,0
06/08/2010,4346,0.45,6,1,5,0
07/08/2010,4275,0.5,2,1,1,0
08/08/2010,4505,0.4,2,1,1,0.653
09/08/2010,4355,0.6,3,2,1,0
10/08/2010,4051,0.6,2,1,1,0
11/08/2010,3341,0.56,1,1,0,0
12/08/2010,4297,0.5,2,0,2,0.239
13/08/2010,4181,0.6,2,0,2,0
14/08/2010,3239,0.5,2,1,1,0
15/08/2010,4440,0.6,5,3,2,0.303
16/08/2010,4179,0.45,2,1,1,0
17/08/2010,4123,0.6,2,2,0,1.553
18/08/2010,4221,0.5,2,0,2,3.225
19/08/2010,4774,0.45,2,1,1,1.499
20/08/2010,3551,0.6,3,0,3,0
21/08/2010,4424,0.5,0,0,0,0
22/08/2010,4440,0.5,3,0,3,0.163
23/08/2010,4473,0.6,3,1,2,0
24/08/2010,3195,0.5,5,2,3,2.069
25/08/2010,4292,0.3,4,1,3,4.062
26/08/2010,4132,0.5,3,2,1,0
27/08/2010,4563,0.55,5,1,4,0
28/08/2010,3983,0.45,3,1,2,0.837
29/08/2010,3498,0.4,3,2,1,0
30/08/2010,3908,0.6,3,1,2,0
31/08/2010,4348,0.5,5,0,5,0
01/09/2010,4282,0.4,4,0,4,0
02/09/2010,2288,0.4,6,4,2,0
03/09/2010,3727,0.6,5,1,4,0
04/09/2010,4443,0.54,5,2,3,3.956
05/09/2010,1684,0.5,8,6,2,5.979
06/09/2010,2099,0.4,5,3,2,0
07/09/2010,0,0,18,9,9,0
08/09/2010,4460,0.5,23,6,17,0
09/09/2010,3777,0.2,27,9,18,0.302
10/09/2010,4212,0.6,21,9,12,0
11/09/2010,4251,0.6,21,15,6,0
12/09/2010,4346,0.5,13,7,6,4.92
13/09/2010,4839,0.6,29,18,11,0
14/09/2010,2705,0.5,21,9,12,0
15/09/2010,4016,0.6,10,3,7,1.522
16/09/2010,4609,,17,9,8,0
17/09/2010,3880,,1,0,1,14.233
18/09/2010,3834,,22,11,11,0.542
19/09/2010,4124,,10,4,6,0
20/09/2010,3936,0.6,15,8,7,2.995
21/09/2010,5313,0.5,13,7,6,2.961
22/09/2010,4091,0.54,12,4,8,0
23/09/2010,3639,0.6,7,5,2,0
24/09/2010,4585,0.5,4,1,3,8.543
25/09/2010,5454,0.5,6,2,4,1.261
26/09/2010,4915,0.6,8,3,5,1.39
27/09/2010,5310,0.6,14,6,8,0
28/09/2010,2138,0.4,7,2,5,0
29/09/2010,4085,0.6,4,2,2,2.918
30/09/2010,5059,0.5,2,0,2,3.187
01/10/2010,4370,0.6,8,5,3,3.114
02/10/2010,4751,0.45,3,1,2,0.799
03/10/2010,5218,0.6,2,2,0,0.298
04/10/2010,5053,0.7,7,3,4,5.124
05/10/2010,4298,0.6,5,2,3,0
06/10/2010,4330,0.5,1,1,0,0
07/10/2010,4897,0.6,3,3,0,0.457
08/10/2010,4219,0.65,4,2,2,0
09/10/2010,5193,0.7,2,0,2,0
10/10/2010,2774,0.5,3,2,1,0.385
11/10/2010,3601,0.63,2,0,2,6.086
12/10/2010,4123,0.65,1,1,0,1.804
13/10/2010,1968,0.6,6,3,3,3.389
14/10/2010,2875,0.5,5,3,2,1.232
15/10/2010,4482,0.54,5,5,0,2.377
16/10/2010,4970,0.6,2,1,1,0.173
17/10/2010,3929,0.6,0,0,0,3.837
18/10/2010,4828,0.42,1,1,0,0.883
19/10/2010,4900,0.67,1,0,1,0
20/10/2010,4227,0.7,0,0,0,0.666
21/10/2010,4574,0.6,3,2,1,0
22/10/2010,4884,0.5,1,0,1,16.355
23/10/2010,3060,0.5,2,0,2,1.354
24/10/2010,4654,0.6,3,3,0,0.683
25/10/2010,4572,0.5,4,0,4,0.466
26/10/2010,4306,0.5,1,0,1,1.237
27/10/2010,3580,0.5,3,1,2,19.196
28/10/2010,3478,0.6,1,0,1,7.008
29/10/2010,3627,0.6,2,1,1,0
30/10/2010,3250,0.5,4,3,1,0.674
31/10/2010,3391,0.7,2,0,2,0.086
01/11/2010,4056,0.63,0,0,0,0.499
02/11/2010,2679,0.8,1,0,1,3.277
03/11/2010,4323,0.6,0,0,0,0
04/11/2010,3019,0.56,4,2,2,1.877
05/11/2010,3445,0.56,1,0,1,2.383
06/11/2010,3995,0.7,5,3,2,0
07/11/2010,4433,0.4,0,0,0,12.016
08/11/2010,3410,0.64,1,1,0,13.05
09/11/2010,4457,0.67,1,0,1,0
10/11/2010,4432,0.6,1,0,1,0.578
11/11/2010,3711,0.6,2,1,1,2.291
12/11/2010,4205,0.56,1,1,0,1.077
13/11/2010,3906,0.55,0,0,0,17.725
14/11/2010,3093,0.5,1,1,0,0.339
15/11/2010,3770,0.6,4,2,2,4.643
16/11/2010,3801,0.6,0,0,0,0
17/11/2010,3703,0.62,0,0,0,0.979
18/11/2010,3174,0.6,3,1,2,0.759
19/11/2010,3712,0.5,0,0,0,0
20/11/2010,3966,0.56,2,1,1,0.895
21/11/2010,3738,0.54,3,2,1,1.472
22/11/2010,4281,0.6,0,0,0,3.493
23/11/2010,3028,0.6,2,1,1,3.099
24/11/2010,2752,0.62,2,0,2,1.214
25/11/2010,3669,0.6,0,0,0,0
26/11/2010,4139,0.7,0,0,0,0
27/11/2010,4066,0.6,2,1,1,0
28/11/2010,3944,0.5,2,0,2,0
29/11/2010,2136,0.65,0,0,0,22.989
30/11/2010,3624,0.5,3,1,2,0
01/12/2010,4467,0.4,1,0,1,3.449
02/12/2010,3726,0.58,1,0,1,0.678
03/12/2010,3948,0.7,1,1,0,0
04/12/2010,4427,0.6,2,0,2,0
05/12/2010,3761,0.46,1,0,1,0
06/12/2010,3704,0.75,2,0,2,10.008
07/12/2010,3704,0.6,2,1,1,6.559
08/12/2010,3684,0.5,0,0,0,18.828
09/12/2010,3698,0.5,2,1,1,13.45
10/12/2010,3842,0.43,0,0,0,18.206
11/12/2010,3972,0.7,0,0,0,7.905
12/12/2010,3884,0.6,2,1,1,10.165
13/12/2010,3575,0.6,0,0,0,0
14/12/2010,3495,0.5,1,0,1,0.502
15/12/2010,4015,0.52,1,0,1,0
16/12/2010,3857,0.54,2,1,1,0
17/12/2010,3883,0.5,4,1,3,0
18/12/2010,3650,0.6,2,1,1,0.015
19/12/2010,4190,0.7,3,1,2,0.9
20/12/2010,3957,0.6,7,6,1,7.837
21/12/2010,2904,0.7,0,0,0,6.905
22/12/2010,3265,0.7,0,0,0,0
23/12/2010,2397,0.6,0,0,0,34.948
24/12/2010,3294,0.7,0,0,0,2.97
25/12/2010,4690,0.57,0,0,0,0.31
26/12/2010,4581,0.5,0,0,0,1.38
27/12/2010,4197,0.7,1,0,1,7.377
28/12/2010,4174,0.6,3,1,2,3.806
29/12/2010,3508,0.6,1,1,0,0
30/12/2010,4762,0.6,4,1,3,0.767
31/12/2010,4056,0.6,0,0,0,4.907
01/01/2011,4591,0.7,0,0,0,1.024
02/01/2011,3655,0.6,2,1,1,2.132
03/01/2011,4326,0.6,1,0,1,0.63
04/01/2011,3459,0.6,1,0,1,4.076
05/01/2011,4233,0.7,1,0,1,0.333
06/01/2011,2092,0.7,1,1,0,10.715
07/01/2011,3563,0.4,2,0,2,0.083
08/01/2011,3921,0.7,0,0,0,6.172
09/01/2011,4577,0.7,0,0,0,3.924
10/01/2011,4431,0.6,1,0,1,6.109
11/01/2011,4258,0.7,1,0,1,0
12/01/2011,3575,0.7,0,0,0,4.629
13/01/2011,3434,0.7,2,1,1,1.386
14/01/2011,3295,0.8,2,2,0,10.733
15/01/2011,3857,0.6,1,1,0,0
16/01/2011,4058,0.8,2,2,0,0
17/01/2011,4168,,9,2,7,3.222
18/01/2011,4032,,0,0,0,2.176
19/01/2011,4289,,0,0,0,18.141
20/01/2011,3845,,0,0,0,3.639
21/01/2011,3921,,0,0,0,0
22/01/2011,4035,,0,0,0,5.627
23/01/2011,3986,,2,0,2,0
24/01/2011,4038,,3,0,3,0.012
25/01/2011,4038,,0,0,0,3.128
26/01/2011,3460,,3,3,0,9.656
27/01/2011,3576,,1,0,1,4.485
28/01/2011,4038,,2,1,1,0
29/01/2011,4461,,3,0,3,0.785
30/01/2011,3765,,1,0,1,0
31/01/2011,2888,,1,1,0,0.262
01/02/2011,336,,0,0,0,2.133
02/02/2011,3602,,1,0,1,0
03/02/2011,3216,,2,0,2,43.513
04/02/2011,3160,,2,2,0,0
05/02/2011,2812,,1,0,1,0
06/02/2011,4360,,3,1,2,0
07/02/2011,4349,,1,0,1,0
08/02/2011,2012,,1,0,1,3.672
09/02/2011,2849,,0,0,0,2.488